Regional Weather Roundup
Issued by NWS Newport/Morehead, NC

Current Version | Previous Version | Text Only | Print | Product List | Glossary On
Versions: 1 2 3 4 5 6 7 8 9 10 11 12 13 14 15 16 17 18 19 20 21 22 23 24 25 26 27 28 29 30 31 32 33 34 35 36 37 38 39 40 41 42 43 44 45 46 47 48 49 50
000
ASUS42 KMHX 221410
RWRMHX
WEATHER ROUNDUP FOR EASTERN NORTH CAROLINA
NATIONAL WEATHER SERVICE NEWPORT/MOREHEAD CITY NC
1000 AM EDT MON SEP 22 2014

NOTE: "FAIR" INDICATES FEW OR NO CLOUDS BELOW 12,000 FEET
WITH NO SIGNIFICANT WEATHER AND/OR OBSTRUCTIONS TO VISIBILITY

NCZ015>017-031-032-045>047-102-103-221500-
NORTH COAST

CITY           SKY/WX    TMP DP  RH WIND       PRES   REMARKS
EDENTON        MOSUNNY   73  61  64 N8        29.99S
ELIZABETH CITY PTSUNNY   75  58  55 NW9       29.98R
KITTY HAWK     MOSUNNY   76  65  70 N8        29.97R
MANTEO         MOSUNNY   75  67  76 N8        29.99R

$$

NCZ045>047-081-094-103-104-221500-
CENTRAL COAST

CITY           SKY/WX    TMP DP  RH WIND       PRES   REMARKS
FRISCO         SUNNY     75  69  81 NW8       29.97R
SWANQUARTER      N/A     77 N/A N/A N3G16     29.94S

$$

NCZ095-097-098-100-101-221500-
SOUTHERN COAST

CITY           SKY/WX    TMP DP  RH WIND       PRES   REMARKS
BEAUFORT       SUNNY     78  63  59 N9        29.98R
CEDAR ISLAND     N/A     75 N/A N/A NW14      30.00S
JACKSONVILLE   SUNNY     77  58  51 N14       30.00R
NEWPORT        NOT AVBL
PINEY ISLAND   SUNNY     79  62  56 N14       29.98R
WILMINGTON     SUNNY     79  63  57 N10       30.00R


$$

NCZ011>013-027>030-043-044-078>080-089-090>093-098-221500-
COASTAL PLAIN

CITY           SKY/WX    TMP DP  RH WIND       PRES   REMARKS
AHOSKIE        SUNNY     70  54  56 N7        30.02R
CLINTON        PTSUNNY   72  59  64 N6        30.04R
ELIZABETHTOWN  CLOUDY    73  61  65 W7        30.04R
GOLDSBORO      PTSUNNY   72  61  67 N10       30.01R
GREENVILLE     MOSUNNY   72  57  60 N5        30.03S
HAVELOCK       MOSUNNY   77  61  57 N14       30.00R
KENANSVILLE    MOSUNNY   74  55  51 N8        30.03R
KINSTON        MOSUNNY   75  57  53 N10       30.02R
NEW BERN         N/A    N/A N/A N/A MISG      30.01R
RICHLANDS      MOSUNNY   75  57  53 N9        30.01R
ROANOKE RAPIDS NOT AVBL
ROCKY MOUNT    PTSUNNY   72  52  49 N14G21    30.03R
WASHINGTON     MOSUNNY   70  61  72 NW7       30.01R
WHITEVILLE     PTSUNNY   74  61  63 N5        30.03R

$$

AMZ130-135-150-152-154-156-158-170-250-252-270-ANZ085-086-088-633-658-670-221500-
MARINE OBSERVATIONS

STATION/POSITION TIME  TEMP    WIND        PRES    WAVE   SWELL
                       AIR SEA DIR/SP/G            HT/PER HT/PER
                 (UTC) (F)     (DEG/KT/KT) (MB)    (FT/S) (FT/S)
CHESAPEAKE LIGHT 1300   72     340/ 18/ 19 1015.0
BUOY 44014       1400   74 76  340/ 16/ 17 1014.1    5/ 9   3/ 9
DUCK             1400   74 74  340/ 13/ 16 1014.1
2E DUCK          1300                        N/A     3/ 9   2/11
OREGON INLET     1400   75 75  340/  7/ 11 1014.6
BUOY 44095       1400      74                N/A     4/ 9
20E OREGON INLET NOT AVBL
HATTERAS CG      NOT AVBL
DIAMOND BUOY     1400   77     300/ 10/ 12 1014.6    6/ 6   5/ 6
CAPE LOOKOUT     1300   76     310/  7/  9 1014.8
BEAUFORT LAB     1400   76 75  350/ 11/ 16 1014.6
30 SE NEW RIVER  1300   77 82  320/ 12/ 16 1014.6
5 SE WRIGHTSVILL 1300   72 79  330/ 12/ 14   N/A
BUOY 41002       1301   80 81  280/  6/  8 1018.0    4/ 7   3/ 7
BUOY 41004       1400   81 81  260/ 14/ 16 1016.1    4/ 5   2/ 8

$$



USA.gov is the U.S. government's official web portal to all federal, state and local government web resources and services.